Archiv-/Tagesdaten

--Timestamp---	Temp	Chill	HIndex	Humid	Dewpt	Wind	HiWind	WindDir	Rain	Barom	Solar	ET	UV
--------------	----	-----	------	-----	-----	----	------	-------	----	-----	-----	--	--
20071222 00:05	-6.7	-6.7	-6.7	92	-7.8	0	2	157	0.00	1031.124	0	0.000	0
20071222 00:10	-6.7	-6.7	-6.7	92	-7.8	0	2	157	0.00	1031.091	0	0.000	0
20071222 00:15	-6.7	-6.7	-6.7	92	-7.7	0	2	157	0.00	1031.091	0	0.000	0
20071222 00:20	-6.7	-6.7	-6.7	92	-7.7	0	0	157	0.00	1031.158	0	0.000	0
20071222 00:25	-6.7	-6.7	-6.7	92	-7.7	0	0	157	0.00	1031.124	0	0.000	0
20071222 00:30	-6.7	-6.7	-6.7	92	-7.7	0	0	157	0.00	1031.124	0	0.000	0
20071222 00:35	-6.7	-6.7	-6.7	92	-7.8	0	2	157	0.00	1031.158	0	0.000	0
20071222 00:40	-6.8	-6.8	-6.8	92	-7.9	0	3	157	0.00	1031.091	0	0.000	0
20071222 00:45	-6.8	-6.8	-6.8	92	-7.9	0	0	157	0.00	1031.057	0	0.000	0
20071222 00:50	-6.8	-6.8	-6.8	92	-7.9	0	0	157	0.00	1031.091	0	0.000	0
20071222 00:55	-6.8	-6.8	-6.8	92	-7.9	0	2	157	0.00	1030.989	0	0.000	0
20071222 01:00	-6.8	-6.8	-6.8	92	-7.9	0	2	157	0.00	1030.955	0	0.000	0
20071222 01:05	-6.8	-6.8	-6.8	92	-7.9	0	2	157	0.00	1030.854	0	0.000	0
20071222 01:10	-6.8	-6.8	-6.8	92	-7.9	0	2	157	0.00	1030.955	0	0.000	0
20071222 01:15	-6.8	-6.8	-6.8	92	-7.9	0	2	157	0.00	1030.921	0	0.000	0
20071222 01:20	-6.8	-6.8	-6.8	92	-7.9	0	2	157	0.00	1030.854	0	0.000	0
20071222 01:25	-6.8	-6.8	-6.8	92	-7.9	0	0	157	0.00	1030.820	0	0.000	0
20071222 01:30	-6.8	-6.8	-6.8	92	-7.9	0	0	157	0.00	1030.718	0	0.000	0
20071222 01:35	-6.8	-6.8	-6.8	92	-7.9	0	3	157	0.00	1030.718	0	0.000	0
20071222 01:40	-6.8	-6.8	-6.8	92	-7.9	0	2	157	0.00	1030.752	0	0.000	0
20071222 01:45	-6.8	-6.8	-6.8	92	-7.9	0	2	157	0.00	1030.752	0	0.000	0
20071222 01:50	-6.8	-6.8	-6.8	92	-7.9	0	2	157	0.00	1030.921	0	0.000	0
20071222 01:55	-6.8	-6.8	-6.8	92	-7.9	0	0	157	0.00	1030.854	0	0.000	0
20071222 02:00	-6.8	-6.8	-6.8	92	-7.9	0	2	157	0.00	1030.718	0	0.000	0
20071222 02:05	-6.8	-6.8	-6.8	92	-7.9	0	2	157	0.00	1030.650	0	0.000	0
20071222 02:10	-6.8	-6.8	-6.8	92	-7.9	0	0	157	0.00	1030.752	0	0.000	0
20071222 02:15	-6.8	-6.8	-6.8	92	-7.9	0	2	157	0.00	1030.684	0	0.000	0
20071222 02:20	-6.8	-6.8	-6.8	92	-7.9	0	2	157	0.00	1030.752	0	0.000	0
20071222 02:25	-6.8	-6.8	-6.8	92	-7.9	0	0	157	0.00	1030.752	0	0.000	0
20071222 02:30	-6.8	-6.8	-6.8	92	-7.9	0	0	157	0.00	1030.820	0	0.000	0
20071222 02:35	-6.8	-6.8	-6.8	92	-7.9	0	0	157	0.00	1030.820	0	0.000	0
20071222 02:40	-6.8	-6.8	-6.8	92	-7.9	0	0	157	0.00	1030.684	0	0.000	0
20071222 02:45	-6.8	-6.8	-6.8	92	-7.9	0	0	157	0.00	1030.650	0	0.000	0
20071222 02:50	-6.8	-6.8	-6.8	92	-7.9	0	2	157	0.00	1030.650	0	0.000	0
20071222 02:55	-6.8	-6.8	-6.8	92	-7.9	0	0	157	0.00	1030.616	0	0.000	0
20071222 03:00	-6.8	-6.8	-6.8	92	-7.9	0	2	157	0.00	1030.583	0	0.000	0
20071222 03:05	-6.8	-6.8	-6.8	92	-7.9	0	0	157	0.00	1030.515	0	0.000	0
20071222 03:10	-6.8	-6.8	-6.8	92	-7.9	0	2	157	0.00	1030.447	0	0.000	0
20071222 03:15	-6.8	-6.8	-6.8	92	-7.9	0	0	157	0.00	1030.447	0	0.000	0
20071222 03:20	-6.8	-6.8	-6.8	92	-7.9	0	0	157	0.00	1030.481	0	0.000	0
20071222 03:25	-6.7	-6.7	-6.7	92	-7.8	0	3	157	0.00	1030.379	0	0.000	0
20071222 03:30	-6.8	-6.8	-6.8	92	-7.9	0	3	157	0.00	1030.447	0	0.000	0
20071222 03:35	-6.8	-6.8	-6.8	92	-7.9	0	3	157	0.00	1030.312	0	0.000	0
20071222 03:40	-6.8	-6.8	-6.8	92	-7.9	0	2	157	0.00	1030.176	0	0.000	0
20071222 03:45	-6.8	-6.8	-6.8	92	-7.9	0	0	157	0.00	1030.142	0	0.000	0
20071222 03:50	-6.7	-6.7	-6.7	92	-7.8	0	0	157	0.00	1030.278	0	0.000	0
20071222 03:55	-6.7	-6.7	-6.7	92	-7.8	0	3	157	0.00	1030.041	0	0.000	0
20071222 04:00	-6.7	-6.7	-6.7	92	-7.8	0	2	157	0.00	1030.075	0	0.000	0
20071222 04:05	-6.7	-6.7	-6.7	92	-7.7	0	0	157	0.00	1030.142	0	0.000	0
20071222 04:10	-6.7	-6.7	-6.7	92	-7.7	0	2	157	0.00	1030.075	0	0.000	0
20071222 04:15	-6.7	-6.7	-6.7	92	-7.8	0	0	157	0.00	1029.939	0	0.000	0
20071222 04:20	-6.7	-6.7	-6.7	92	-7.8	0	0	157	0.00	1029.871	0	0.000	0
20071222 04:25	-6.7	-6.7	-6.7	92	-7.7	0	0	157	0.00	1029.871	0	0.000	0
20071222 04:30	-6.7	-6.7	-6.7	92	-7.7	0	0	157	0.00	1029.871	0	0.000	0
20071222 04:35	-6.7	-6.7	-6.7	92	-7.7	0	0	157	0.00	1029.871	0	0.000	0
20071222 04:40	-6.7	-6.7	-6.7	92	-7.7	0	0	157	0.00	1029.838	0	0.000	0
20071222 04:45	-6.7	-6.7	-6.7	92	-7.7	0	0	157	0.00	1029.838	0	0.000	0
20071222 04:50	-6.7	-6.7	-6.7	92	-7.7	0	2	157	0.00	1029.871	0	0.000	0
20071222 04:55	-6.7	-6.7	-6.7	92	-7.7	0	2	157	0.00	1029.871	0	0.000	0
20071222 05:00	-6.7	-6.7	-6.7	92	-7.8	0	0	157	0.00	1029.871	0	0.000	0
20071222 05:05	-6.7	-6.7	-6.7	92	-7.8	0	0	157	0.00	1029.939	0	0.000	0
20071222 05:10	-6.7	-6.7	-6.7	92	-7.8	0	0	157	0.00	1029.939	0	0.000	0
20071222 05:15	-6.7	-6.7	-6.7	92	-7.7	0	0	157	0.00	1029.973	0	0.000	0
20071222 05:20	-6.7	-6.7	-6.7	92	-7.7	0	0	157	0.00	1029.905	0	0.000	0
20071222 05:25	-6.6	-6.6	-6.6	92	-7.7	0	0	157	0.00	1029.939	0	0.000	0
20071222 05:30	-6.6	-6.6	-6.6	92	-7.6	0	0	157	0.00	1030.075	0	0.000	0
20071222 05:35	-6.6	-6.6	-6.6	92	-7.6	0	2	157	0.00	1030.041	0	0.000	0
20071222 05:40	-6.6	-6.6	-6.6	92	-7.6	0	0	157	0.00	1030.075	0	0.000	0
20071222 05:45	-6.6	-6.6	-6.6	92	-7.6	0	0	157	0.00	1030.041	0	0.000	0
20071222 05:50	-6.6	-6.6	-6.6	92	-7.6	0	2	157	0.00	1030.109	0	0.000	0
20071222 05:55	-6.6	-6.6	-6.6	92	-7.6	0	2	157	0.00	1030.210	0	0.000	0
20071222 06:00	-6.6	-6.6	-6.6	92	-7.6	0	0	157	0.00	1030.210	0	0.000	0
20071222 06:05	-6.6	-6.6	-6.6	92	-7.7	0	2	157	0.00	1030.312	0	0.000	0
20071222 06:10	-6.7	-6.7	-6.7	92	-7.7	0	0	157	0.00	1030.312	0	0.000	0
20071222 06:15	-6.6	-6.6	-6.6	92	-7.7	0	0	157	0.00	1030.278	0	0.000	0
20071222 06:20	-6.7	-6.7	-6.7	92	-7.7	0	2	157	0.00	1030.210	0	0.000	0
20071222 06:25	-6.7	-6.7	-6.7	92	-7.7	0	0	157	0.00	1030.346	0	0.000	0
20071222 06:30	-6.7	-6.7	-6.7	92	-7.8	0	3	157	0.00	1030.379	0	0.000	0
20071222 06:35	-6.7	-6.7	-6.7	92	-7.7	0	3	157	0.00	1030.413	0	0.000	0
20071222 06:40	-6.7	-6.7	-6.7	92	-7.7	0	3	202	0.00	1030.379	0	0.000	0
20071222 06:45	-6.8	-6.8	-6.8	92	-7.9	0	5	202	0.00	1030.481	0	0.000	0
20071222 06:50	-6.8	-6.8	-6.8	92	-7.9	0	0	202	0.00	1030.413	0	0.000	0
20071222 06:55	-6.8	-6.8	-6.8	92	-7.9	0	0	202	0.00	1030.413	0	0.000	0
20071222 07:00	-6.8	-6.8	-6.8	92	-7.9	0	0	202	0.00	1030.481	0	0.000	0
20071222 07:05	-6.8	-6.8	-6.8	92	-7.9	0	3	202	0.00	1030.447	0	0.000	0
20071222 07:10	-6.8	-6.8	-6.8	92	-7.9	0	3	202	0.00	1030.447	0	0.000	0
20071222 07:15	-6.8	-6.8	-6.8	92	-7.9	0	3	202	0.00	1030.481	0	0.000	0
20071222 07:20	-6.8	-6.8	-6.8	92	-7.9	0	3	202	0.00	1030.515	0	0.000	0
20071222 07:25	-6.8	-6.8	-6.8	92	-7.9	0	0	202	0.00	1030.549	0	0.000	0
20071222 07:30	-6.8	-6.8	-6.8	92	-7.9	0	0	202	0.00	1030.481	0	0.000	0
20071222 07:35	-6.7	-6.7	-6.7	92	-7.8	0	0	202	0.00	1030.583	0	0.000	0
20071222 07:40	-6.7	-6.7	-6.7	92	-7.7	0	0	202	0.00	1030.616	0	0.000	0
20071222 07:45	-6.6	-6.6	-6.6	92	-7.7	0	0	202	0.00	1030.684	0	0.000	0
20071222 07:50	-6.6	-6.6	-6.6	92	-7.6	0	0	202	0.00	1030.718	0	0.000	0
20071222 07:55	-6.5	-6.5	-6.5	92	-7.6	0	2	202	0.00	1030.684	0	0.000	0
20071222 08:00	-6.5	-6.5	-6.5	92	-7.6	0	2	202	0.00	1030.820	0	0.000	0
20071222 08:05	-6.5	-6.5	-6.5	92	-7.6	0	2	202	0.00	1030.989	0	0.000	0
20071222 08:10	-6.6	-6.6	-6.6	92	-7.6	0	2	202	0.00	1030.989	0	0.000	0
20071222 08:15	-6.6	-6.6	-6.6	92	-7.7	0	2	202	0.00	1031.023	0	0.000	0
20071222 08:20	-6.6	-6.6	-6.6	92	-7.7	0	2	202	0.00	1031.057	0	0.000	0
20071222 08:25	-6.7	-6.7	-6.7	92	-7.7	0	2	202	0.00	1031.124	4	0.000	0
20071222 08:30	-6.6	-6.6	-6.6	92	-7.7	0	2	202	0.00	1031.158	5	0.000	0
20071222 08:35	-6.6	-6.6	-6.6	92	-7.6	0	2	202	0.00	1031.158	7	0.000	0
20071222 08:40	-6.6	-6.6	-6.6	92	-7.6	0	3	202	0.00	1031.158	8	0.000	0
20071222 08:45	-6.6	-6.6	-6.6	92	-7.6	0	3	202	0.00	1031.260	10	0.000	0
20071222 08:50	-6.6	-6.6	-6.6	92	-7.6	0	0	202	0.00	1031.226	12	0.000	0
20071222 08:55	-6.5	-6.5	-6.5	92	-7.6	0	2	202	0.00	1031.226	15	0.000	0
20071222 09:00	-6.5	-6.5	-6.5	92	-7.6	0	3	202	0.00	1031.294	16	0.000	0
20071222 09:05	-6.5	-6.5	-6.5	92	-7.6	0	2	202	0.00	1031.260	18	0.000	0
20071222 09:10	-6.4	-6.4	-6.4	92	-7.5	0	3	202	0.00	1031.328	19	0.000	0
20071222 09:15	-6.4	-6.4	-6.4	92	-7.5	0	3	225	0.00	1031.361	21	0.000	0
20071222 09:20	-6.4	-6.4	-6.4	92	-7.5	0	2	225	0.00	1031.361	25	0.000	0
20071222 09:25	-6.5	-6.5	-6.5	92	-7.6	0	0	225	0.00	1031.395	24	0.000	0
20071222 09:30	-6.5	-6.5	-6.5	92	-7.6	0	2	225	0.00	1031.328	24	0.000	0
20071222 09:35	-6.5	-6.5	-6.5	92	-7.6	0	2	225	0.00	1031.497	26	0.000	0
20071222 09:40	-6.4	-6.4	-6.4	92	-7.5	0	2	225	0.00	1031.531	26	0.000	0
20071222 09:45	-6.4	-6.4	-6.4	92	-7.5	0	3	225	0.00	1031.497	31	0.000	0
20071222 09:50	-6.5	-6.5	-6.5	92	-7.6	0	2	225	0.00	1031.497	33	0.000	0
20071222 09:55	-6.5	-6.5	-6.5	92	-7.6	0	3	225	0.00	1031.531	34	0.000	0
20071222 10:00	-6.5	-6.5	-6.5	92	-7.6	2	5	225	0.00	1031.599	40	0.000	0
20071222 10:05	-6.6	-6.6	-6.6	92	-7.6	2	3	225	0.00	1031.531	46	0.000	0
20071222 10:10	-6.6	-6.6	-6.6	92	-7.6	0	3	202	0.00	1031.565	49	0.000	0
20071222 10:15	-6.6	-6.6	-6.6	92	-7.6	0	2	202	0.00	1031.497	54	0.000	0
20071222 10:20	-6.5	-6.5	-6.5	92	-7.6	0	5	202	0.00	1031.565	63	0.000	0
20071222 10:25	-6.4	-6.4	-6.4	92	-7.5	0	3	202	0.00	1031.565	67	0.000	0
20071222 10:30	-6.4	-6.4	-6.4	92	-7.5	2	5	202	0.00	1031.531	69	0.000	0
20071222 10:35	-6.5	-6.5	-6.5	92	-7.6	0	2	202	0.00	1031.497	68	0.000	0
20071222 10:40	-6.4	-6.4	-6.4	92	-7.5	0	2	202	0.00	1031.565	56	0.000	0
20071222 10:45	-6.4	-6.4	-6.4	92	-7.5	0	2	202	0.00	1031.565	55	0.000	0
20071222 10:50	-6.3	-6.3	-6.3	92	-7.4	0	0	202	0.00	1031.666	58	0.000	0
20071222 10:55	-6.2	-6.2	-6.2	93	-7.1	0	2	202	0.00	1031.565	65	0.000	0
20071222 11:00	-6.1	-6.1	-6.1	92	-7.1	0	2	202	0.00	1031.531	44	0.020	0
20071222 11:05	-6.0	-6.0	-6.0	92	-7.1	0	3	202	0.00	1031.395	49	0.000	0
20071222 11:10	-6.0	-6.0	-6.0	92	-7.1	0	2	202	0.00	1031.361	58	0.000	0
20071222 11:15	-6.0	-6.0	-6.0	92	-7.1	0	3	202	0.00	1031.328	67	0.000	0
20071222 11:20	-6.0	-6.0	-6.0	92	-7.1	0	0	202	0.00	1031.260	72	0.000	0
20071222 11:25	-5.9	-5.9	-5.9	92	-7.0	0	2	157	0.00	1031.226	81	0.000	0
20071222 11:30	-5.9	-5.9	-5.9	92	-7.0	0	0	157	0.00	1031.192	89	0.000	0
20071222 11:35	-5.9	-5.9	-5.9	92	-7.0	0	0	157	0.00	1031.158	88	0.000	0
20071222 11:40	-5.8	-5.8	-5.8	93	-6.8	0	2	157	0.00	1031.091	80	0.000	0
20071222 11:45	-5.8	-5.8	-5.8	92	-6.9	0	0	157	0.00	1030.955	90	0.000	0
20071222 11:50	-5.7	-5.7	-5.7	92	-6.8	0	0	157	0.00	1030.887	107	0.000	0
20071222 11:55	-5.5	-5.5	-5.5	93	-6.4	0	2	157	0.00	1030.820	106	0.000	0
20071222 12:00	-5.5	-5.5	-5.5	93	-6.4	0	3	135	0.00	1030.718	100	0.020	0
20071222 12:05	-5.4	-5.4	-5.4	93	-6.4	0	2	135	0.00	1030.616	103	0.000	0
20071222 12:10	-5.3	-5.3	-5.3	93	-6.3	0	2	135	0.00	1030.515	113	0.000	0
20071222 12:15	-5.2	-5.2	-5.2	93	-6.2	0	2	135	0.20	1030.549	99	0.000	0
20071222 12:20	-5.1	-5.1	-5.1	93	-6.1	0	2	135	0.00	1030.583	90	0.000	0
20071222 12:25	-5.1	-5.1	-5.1	93	-6.1	0	0	135	0.00	1030.481	83	0.000	0
20071222 12:30	-5.1	-5.1	-5.1	93	-6.0	0	2	135	0.00	1030.515	84	0.000	0
20071222 12:35	-5.1	-5.1	-5.1	93	-6.0	0	0	135	0.00	1030.447	106	0.000	0
20071222 12:40	-5.0	-5.0	-5.0	93	-6.0	0	0	135	0.00	1030.379	108	0.000	0
20071222 12:45	-4.8	-4.8	-4.8	93	-5.8	0	2	135	0.00	1030.346	103	0.000	0
20071222 12:50	-4.8	-4.8	-4.8	93	-5.7	0	0	135	0.00	1030.278	84	0.000	0
20071222 12:55	-4.7	-4.7	-4.7	93	-5.7	0	0	135	0.00	1030.041	85	0.000	0
20071222 13:00	-4.7	-4.7	-4.7	93	-5.7	0	2	135	0.00	1030.007	101	0.020	0
20071222 13:05	-4.8	-4.8	-4.8	93	-5.7	0	0	135	0.00	1030.007	94	0.000	0
20071222 13:10	-4.8	-4.8	-4.8	93	-5.7	0	0	135	0.00	1030.041	81	0.000	0
20071222 13:15	-4.7	-4.7	-4.7	93	-5.7	0	2	135	0.00	1030.007	91	0.000	0
20071222 13:20	-4.7	-4.7	-4.7	93	-5.6	0	0	135	0.00	1029.905	86	0.000	0
20071222 13:25	-4.6	-4.6	-4.6	93	-5.6	0	2	135	0.00	1030.007	83	0.000	0
20071222 13:30	-4.6	-4.6	-4.6	93	-5.5	0	2	135	0.00	1029.939	89	0.000	0
20071222 13:35	-4.5	-4.5	-4.5	93	-5.5	0	0	135	0.00	1030.041	90	0.000	0
20071222 13:40	-4.4	-4.4	-4.4	93	-5.4	0	0	135	0.00	1029.939	96	0.000	0
20071222 13:45	-4.3	-4.3	-4.3	93	-5.3	0	0	135	0.00	1029.939	101	0.000	0
20071222 13:50	-4.3	-4.3	-4.3	93	-5.2	0	0	135	0.00	1029.939	92	0.000	0
20071222 13:55	-4.3	-4.3	-4.3	93	-5.2	0	2	135	0.00	1029.838	83	0.000	0
20071222 14:00	-4.3	-4.3	-4.3	93	-5.2	0	2	135	0.00	1029.668	58	0.020	0
20071222 14:05	-4.3	-4.3	-4.3	93	-5.3	0	2	135	0.00	1029.567	46	0.000	0
20071222 14:10	-4.4	-4.4	-4.4	93	-5.3	0	0	135	0.00	1029.668	49	0.000	0
20071222 14:15	-4.4	-4.4	-4.4	93	-5.4	0	0	135	0.00	1029.634	59	0.000	0
20071222 14:20	-4.4	-4.4	-4.4	93	-5.4	0	2	135	0.00	1029.634	49	0.000	0
20071222 14:25	-4.4	-4.4	-4.4	93	-5.3	0	0	135	0.00	1029.533	42	0.000	0
20071222 14:30	-4.3	-4.3	-4.3	93	-5.3	0	0	135	0.00	1029.533	38	0.000	0
20071222 14:35	-4.2	-4.2	-4.2	93	-5.2	0	2	135	0.00	1029.533	39	0.000	0
20071222 14:40	-4.2	-4.2	-4.2	93	-5.1	0	0	135	0.00	1029.600	38	0.000	0
20071222 14:45	-4.2	-4.2	-4.2	93	-5.1	0	0	135	0.00	1029.600	38	0.000	0
20071222 14:50	-4.2	-4.2	-4.2	93	-5.1	0	0	135	0.00	1029.668	38	0.000	0
20071222 14:55	-4.1	-4.1	-4.1	93	-5.1	0	0	135	0.00	1029.668	35	0.000	0
20071222 15:00	-4.1	-4.1	-4.1	93	-5.0	0	0	135	0.00	1029.567	33	0.000	0
20071222 15:05	-4.1	-4.1	-4.1	93	-5.0	0	0	135	0.00	1029.634	34	0.000	0
20071222 15:10	-4.0	-4.0	-4.0	93	-5.0	0	0	135	0.00	1029.634	36	0.000	0
20071222 15:15	-3.9	-3.9	-3.9	93	-4.9	0	0	135	0.00	1029.634	46	0.000	0
20071222 15:20	-3.9	-3.9	-3.9	93	-4.9	0	0	135	0.00	1029.567	45	0.000	0
20071222 15:25	-3.8	-3.8	-3.8	93	-4.8	0	0	135	0.00	1029.600	40	0.000	0
20071222 15:30	-3.8	-3.8	-3.8	93	-4.7	0	0	135	0.00	1029.465	33	0.000	0
20071222 15:35	-3.7	-3.7	-3.7	93	-4.7	0	2	135	0.00	1029.363	25	0.000	0
20071222 15:40	-3.7	-3.7	-3.7	93	-4.6	0	0	135	0.00	1029.465	21	0.000	0
20071222 15:45	-3.7	-3.7	-3.7	94	-4.5	0	0	135	0.00	1029.397	21	0.000	0
20071222 15:50	-3.7	-3.7	-3.7	94	-4.5	0	0	135	0.00	1029.431	15	0.000	0
20071222 15:55	-3.6	-3.6	-3.6	94	-4.4	0	0	135	0.00	1029.262	12	0.000	0
20071222 16:00	-3.6	-3.6	-3.6	94	-4.4	0	2	135	0.00	1029.262	11	0.000	0
20071222 16:05	-3.5	-3.5	-3.5	94	-4.3	0	0	135	0.00	1029.262	9	0.000	0
20071222 16:10	-3.5	-3.5	-3.5	94	-4.3	0	0	135	0.00	1029.363	7	0.000	0
20071222 16:15	-3.6	-3.6	-3.6	94	-4.4	0	0	135	0.00	1029.397	3	0.000	0
20071222 16:20	-3.6	-3.6	-3.6	93	-4.6	0	0	135	0.00	1029.431	0	0.000	0
20071222 16:25	-3.6	-3.6	-3.6	93	-4.6	0	0	135	0.00	1029.431	0	0.000	0
20071222 16:30	-3.7	-3.7	-3.7	93	-4.6	0	2	135	0.00	1029.567	0	0.000	0
20071222 16:35	-3.7	-3.7	-3.7	93	-4.7	0	2	135	0.00	1029.567	0	0.000	0
20071222 16:40	-3.8	-3.8	-3.8	93	-4.7	0	0	135	0.00	1029.533	0	0.000	0
20071222 16:45	-3.8	-3.8	-3.8	93	-4.8	0	2	135	0.00	1029.600	0	0.000	0
20071222 16:50	-3.8	-3.8	-3.8	93	-4.8	0	0	135	0.00	1029.567	0	0.000	0
20071222 16:55	-3.9	-3.9	-3.9	93	-4.9	0	2	135	0.00	1029.600	0	0.000	0
20071222 17:00	-3.9	-3.9	-3.9	93	-4.9	0	0	135	0.00	1029.567	0	0.000	0
20071222 17:05	-3.9	-3.9	-3.9	93	-4.9	0	0	135	0.00	1029.567	0	0.000	0
20071222 17:10	-4.0	-4.0	-4.0	93	-5.0	0	0	135	0.00	1029.567	0	0.000	0
20071222 17:15	-4.1	-4.1	-4.1	93	-5.0	0	2	135	0.00	1029.600	0	0.000	0
20071222 17:20	-4.1	-4.1	-4.1	93	-5.1	0	0	135	0.00	1029.668	0	0.000	0
20071222 17:25	-4.2	-4.2	-4.2	93	-5.2	0	0	135	0.00	1029.634	0	0.000	0
20071222 17:30	-4.2	-4.2	-4.2	93	-5.2	0	0	135	0.00	1029.668	0	0.000	0
20071222 17:35	-4.2	-4.2	-4.2	93	-5.2	0	0	135	0.00	1029.736	0	0.000	0
20071222 17:40	-4.3	-4.3	-4.3	93	-5.2	0	0	135	0.00	1029.736	0	0.000	0
20071222 17:45	-4.3	-4.3	-4.3	93	-5.3	0	0	135	0.00	1029.702	0	0.000	0
20071222 17:50	-4.4	-4.4	-4.4	93	-5.3	0	0	135	0.00	1029.702	0	0.000	0
20071222 17:55	-4.5	-4.5	-4.5	93	-5.5	0	0	135	0.00	1029.736	0	0.000	0
20071222 18:00	-4.5	-4.5	-4.5	93	-5.5	0	0	135	0.00	1029.736	0	0.000	0
20071222 18:05	-4.5	-4.5	-4.5	93	-5.5	0	0	135	0.00	1029.702	0	0.000	0
20071222 18:10	-4.6	-4.6	-4.6	93	-5.5	0	0	135	0.00	1029.702	0	0.000	0
20071222 18:15	-4.6	-4.6	-4.6	93	-5.5	0	0	135	0.00	1029.634	0	0.000	0
20071222 18:20	-4.7	-4.7	-4.7	93	-5.6	0	2	135	0.00	1029.634	0	0.000	0
20071222 18:25	-4.8	-4.8	-4.8	93	-5.7	0	0	135	0.00	1029.736	0	0.000	0
20071222 18:30	-4.8	-4.8	-4.8	93	-5.7	0	2	135	0.00	1030.007	0	0.000	0
20071222 18:35	-4.8	-4.8	-4.8	93	-5.8	0	0	135	0.00	1030.007	0	0.000	0
20071222 18:40	-4.8	-4.8	-4.8	93	-5.8	0	0	135	0.00	1029.939	0	0.000	0
20071222 18:45	-4.8	-4.8	-4.8	93	-5.7	0	0	135	0.00	1029.905	0	0.000	0
20071222 18:50	-4.8	-4.8	-4.8	93	-5.7	0	0	135	0.00	1029.871	0	0.000	0
20071222 18:55	-4.8	-4.8	-4.8	93	-5.8	0	0	135	0.00	1029.939	0	0.000	0
20071222 19:00	-4.8	-4.8	-4.8	93	-5.8	0	2	135	0.00	1030.007	0	0.000	0
20071222 19:05	-4.9	-4.9	-4.9	93	-5.9	0	0	135	0.00	1030.041	0	0.000	0
20071222 19:10	-4.9	-4.9	-4.9	93	-5.9	0	0	135	0.00	1030.142	0	0.000	0
20071222 19:15	-5.0	-5.0	-5.0	93	-6.0	0	0	135	0.00	1030.142	0	0.000	0
20071222 19:20	-5.0	-5.0	-5.0	93	-6.0	0	0	135	0.00	1030.176	0	0.000	0
20071222 19:25	-5.1	-5.1	-5.1	93	-6.0	0	0	135	0.00	1030.210	0	0.000	0
20071222 19:30	-5.1	-5.1	-5.1	93	-6.0	0	0	135	0.00	1030.210	0	0.000	0
20071222 19:35	-5.2	-5.2	-5.2	93	-6.1	0	0	135	0.00	1030.176	0	0.000	0
20071222 19:40	-5.2	-5.2	-5.2	93	-6.1	0	0	135	0.00	1030.244	0	0.000	0
20071222 19:45	-5.2	-5.2	-5.2	93	-6.2	0	2	135	0.00	1030.346	0	0.000	0
20071222 19:50	-5.3	-5.3	-5.3	93	-6.2	0	0	135	0.00	1030.312	0	0.000	0
20071222 19:55	-5.3	-5.3	-5.3	93	-6.3	0	0	135	0.00	1030.278	0	0.000	0
20071222 20:00	-5.4	-5.4	-5.4	93	-6.3	0	0	135	0.00	1030.312	0	0.000	0
20071222 20:05	-5.4	-5.4	-5.4	93	-6.4	0	0	135	0.00	1030.312	0	0.000	0
20071222 20:10	-5.6	-5.6	-5.6	93	-6.5	0	0	135	0.00	1030.346	0	0.000	0
20071222 20:15	-5.6	-5.6	-5.6	92	-6.7	0	0	135	0.00	1030.312	0	0.000	0
20071222 20:20	-5.7	-5.7	-5.7	92	-6.8	0	2	135	0.00	1030.312	0	0.000	0
20071222 20:25	-5.8	-5.8	-5.8	92	-6.9	0	2	135	0.00	1030.278	0	0.000	0
20071222 20:30	-5.8	-5.8	-5.8	92	-6.9	0	0	135	0.00	1030.278	0	0.000	0
20071222 20:35	-5.8	-5.8	-5.8	92	-6.9	0	0	135	0.00	1030.244	0	0.000	0
20071222 20:40	-5.8	-5.8	-5.8	92	-6.9	0	0	135	0.00	1030.278	0	0.000	0
20071222 20:45	-5.8	-5.8	-5.8	92	-6.9	0	0	135	0.00	1030.346	0	0.000	0
20071222 20:50	-5.8	-5.8	-5.8	92	-6.9	0	0	135	0.00	1030.346	0	0.000	0
20071222 20:55	-5.9	-5.9	-5.9	92	-7.0	0	0	135	0.00	1030.447	0	0.000	0
20071222 21:00	-6.0	-6.0	-6.0	92	-7.1	0	0	135	0.00	1030.515	0	0.000	0
20071222 21:05	-6.1	-6.1	-6.1	92	-7.1	0	0	135	0.00	1030.481	0	0.000	0
20071222 21:10	-6.1	-6.1	-6.1	92	-7.1	0	0	135	0.00	1030.447	0	0.000	0
20071222 21:15	-6.0	-6.0	-6.0	92	-7.1	0	0	135	0.00	1030.481	0	0.000	0
20071222 21:20	-6.0	-6.0	-6.0	92	-7.1	0	0	135	0.00	1030.447	0	0.000	0
20071222 21:25	-6.0	-6.0	-6.0	92	-7.1	0	0	135	0.00	1030.481	0	0.000	0
20071222 21:30	-6.0	-6.0	-6.0	92	-7.1	0	0	135	0.00	1030.481	0	0.000	0
20071222 21:35	-6.0	-6.0	-6.0	92	-7.1	0	0	135	0.00	1030.549	0	0.000	0
20071222 21:40	-6.0	-6.0	-6.0	92	-7.1	0	5	135	0.00	1030.549	0	0.000	0
20071222 21:45	-6.1	-6.1	-6.1	92	-7.2	0	2	202	0.00	1030.515	0	0.000	0
20071222 21:50	-6.1	-6.1	-6.1	92	-7.2	0	0	202	0.00	1030.616	0	0.000	0
20071222 21:55	-6.1	-6.1	-6.1	92	-7.2	0	0	202	0.00	1030.583	0	0.000	0
20071222 22:00	-6.1	-6.1	-6.1	92	-7.2	0	2	202	0.00	1030.583	0	0.000	0
20071222 22:05	-6.2	-6.2	-6.2	92	-7.3	0	3	202	0.00	1030.413	0	0.000	0
20071222 22:10	-6.2	-6.2	-6.2	92	-7.3	0	0	202	0.00	1030.515	0	0.000	0
20071222 22:15	-6.3	-6.3	-6.3	92	-7.4	0	0	202	0.00	1030.549	0	0.000	0
20071222 22:20	-6.3	-6.3	-6.3	92	-7.4	0	2	202	0.00	1030.583	0	0.000	0
20071222 22:25	-6.4	-6.4	-6.4	92	-7.5	0	2	202	0.00	1030.549	0	0.000	0
20071222 22:30	-6.4	-6.4	-6.4	92	-7.5	0	0	202	0.00	1030.684	0	0.000	0
20071222 22:35	-6.4	-6.4	-6.4	92	-7.5	0	0	202	0.00	1030.650	0	0.000	0
20071222 22:40	-6.5	-6.5	-6.5	92	-7.6	0	0	202	0.00	1030.650	0	0.000	0
20071222 22:45	-6.5	-6.5	-6.5	92	-7.6	0	0	202	0.00	1030.616	0	0.000	0
20071222 22:50	-6.6	-6.6	-6.6	92	-7.6	0	0	202	0.00	1030.718	0	0.000	0
20071222 22:55	-6.7	-6.7	-6.7	92	-7.7	0	0	202	0.00	1030.583	0	0.000	0
20071222 23:00	-6.7	-6.7	-6.7	92	-7.7	0	0	202	0.00	1030.515	0	0.000	0
20071222 23:05	-6.7	-6.7	-6.7	92	-7.8	0	0	202	0.00	1030.379	0	0.000	0
20071222 23:10	-6.8	-6.8	-6.8	92	-7.9	0	0	202	0.00	1030.447	0	0.000	0
20071222 23:15	-6.8	-6.8	-6.8	92	-7.9	0	0	202	0.00	1030.447	0	0.000	0
20071222 23:20	-6.7	-6.7	-6.7	92	-7.8	0	0	202	0.00	1030.413	0	0.000	0
20071222 23:25	-6.8	-6.8	-6.8	92	-7.9	0	0	202	0.00	1030.312	0	0.000	0
20071222 23:30	-6.8	-6.8	-6.8	92	-7.9	0	0	202	0.00	1030.346	0	0.000	0
20071222 23:35	-6.8	-6.8	-6.8	92	-7.9	0	0	202	0.00	1030.312	0	0.000	0
20071222 23:40	-6.8	-6.8	-6.8	92	-7.9	0	0	202	0.00	1030.312	0	0.000	0
20071222 23:45	-6.8	-6.8	-6.8	92	-7.9	0	0	202	0.00	1030.278	0	0.000	0
20071222 23:50	-6.9	-6.9	-6.9	91	-8.2	0	0	202	0.00	1030.278	0	0.000	0
20071222 23:55	-7.0	-7.0	-7.0	91	-8.2	0	0	202	0.00	1030.481	0	0.000	0
20071222 24:00	-6.9	-6.9	-6.9	92	-8.0	0	0	202	0.00	1030.346	0	0.000	0



Please note the license to use and transfer of this data:
http://creativecommons.org/licenses/by-nc-sa/3.0/deed.en

Bitte beachten sie die Lizenz zur Verwertung und Weitergabe der Daten:
http://creativecommons.org/licenses/by-nc-sa/3.0/deed.de

zurück zur Übersicht der Archivdaten (Monats und Tagesdaten)

Cookies helfen bei der Bereitstellung von Inhalten. Durch die Nutzung dieser Seiten erklärst du dich damit einverstanden, dass Cookies auf deinem Rechner gespeichert werden. Weitere Information